Location: Wald
(31.7579°N, 86.6655°W)
Time: 20:52:49
(UTC+00:00)

NOSS 0 Rocket - Pass Details

Date: 14 July 2020
Orbit: 934 x 955 km, 70.0° (Epoch: 13 August)

Event Time Altitude Azimuth Distance (km) Brightness Sun altitude
Rises 01:47:51 0° 193° (SSW) 3,573 6.7 -10.8°
Reaches altitude 10° 01:50:22 10° 190° (S) 2,633 6.0 -11.2°
Maximum altitude 01:56:25 69° 109° (ESE) 998 3.9 -12.3°
Drops below altitude 10° 02:02:32 10° 27° (NNE) 2,655 6.4 -13.3°
Sets 02:05:05 0° 25° (NNE) 3,605 7.1 -13.8°
